Time,TemperatureF,DewpointF,PressureIn,WindDirection,WindDirectionDegrees,WindSpeedMPH,WindSpeedGustMPH,Humidity,HourlyPrecipIn,Conditions,Clouds,dailyrainin,SoftwareType,DateUTC
2013-06-07 08:15:00,67.6,64.2,29.81,West,279,0.0,2.0,89,0.00,,,0.00,Wunderground v.1.15,2013-06-07 13:15:00,
2013-06-07 08:16:00,67.6,64.2,29.81,West,279,0.0,2.0,89,0.00,,,0.00,Wunderground v.1.15,2013-06-07 13:16:00,
2013-06-07 08:17:00,67.6,64.2,29.81,West,279,0.0,2.0,89,0.00,,,0.00,Wunderground v.1.15,2013-06-07 13:17:00,
2013-06-07 08:19:00,67.6,64.2,29.81,West,279,0.0,2.0,89,0.00,,,0.00,Wunderground v.1.15,2013-06-07 13:19:00,
2013-06-07 08:25:00,67.8,64.4,29.82,West,279,0.0,2.0,89,0.00,,,0.00,Wunderground v.1.15,2013-06-07 13:25:00,
2013-06-07 08:26:00,67.9,64.9,29.81,West,279,0.0,2.0,90,0.00,,,0.00,Wunderground v.1.15,2013-06-07 13:26:00,
2013-06-07 08:32:00,68.1,64.7,29.82,SW,223,0.0,2.0,89,0.00,,,0.00,Wunderground v.1.15,2013-06-07 13:32:00,
2013-06-07 08:37:00,68.4,65.0,29.82,SW,221,0.0,2.0,89,0.00,,,0.00,Wunderground v.1.15,2013-06-07 13:37:00,
2013-06-07 08:43:00,68.7,64.7,29.82,SW,219,0.0,2.0,87,0.00,,,0.00,Wunderground v.1.15,2013-06-07 13:43:00,
2013-06-07 08:49:00,69.1,65.1,29.82,SW,219,0.0,2.0,87,0.00,,,0.00,Wunderground v.1.15,2013-06-07 13:49:00,
2013-06-07 08:55:00,69.5,65.5,29.82,SW,225,0.0,2.0,87,0.00,,,0.00,Wunderground v.1.15,2013-06-07 13:55:00,
2013-06-07 09:02:00,69.9,66.2,29.82,SW,223,0.0,0.0,88,0.00,,,0.00,Wunderground v.1.15,2013-06-07 14:02:00,
2013-06-07 09:08:00,70.6,66.2,29.82,NNE,32,1.0,4.0,86,0.00,,,0.00,Wunderground v.1.15,2013-06-07 14:08:00,
2013-06-07 09:13:00,71.0,66.3,29.82,SE,139,1.0,1.0,85,0.00,,,0.00,Wunderground v.1.15,2013-06-07 14:13:00,
2013-06-07 09:19:00,71.0,65.9,29.82,SW,231,1.0,3.0,84,0.00,,,0.00,Wunderground v.1.15,2013-06-07 14:19:00,
2013-06-07 09:24:00,71.2,66.5,29.82,South,182,1.0,1.0,85,0.00,,,0.00,Wunderground v.1.15,2013-06-07 14:24:00,
2013-06-07 09:29:00,71.7,66.6,29.82,South,182,0.0,1.0,84,0.00,,,0.00,Wunderground v.1.15,2013-06-07 14:29:00,
2013-06-07 09:35:00,72.4,67.6,29.82,SE,132,0.0,1.0,85,0.00,,,0.00,Wunderground v.1.15,2013-06-07 14:35:00,
2013-06-07 09:41:00,72.5,66.3,29.82,WSW,241,1.0,4.0,81,0.00,,,0.00,Wunderground v.1.15,2013-06-07 14:41:00,
2013-06-07 09:46:00,71.9,66.5,29.82,WSW,240,2.0,4.0,83,0.00,,,0.00,Wunderground v.1.15,2013-06-07 14:46:00,
2013-06-07 09:52:00,71.6,66.5,29.83,SW,217,3.0,4.0,84,0.00,,,0.00,Wunderground v.1.15,2013-06-07 14:52:00,
2013-06-07 09:57:00,71.5,66.1,29.83,SW,233,3.0,6.0,83,0.00,,,0.00,Wunderground v.1.15,2013-06-07 14:57:00,
2013-06-07 10:02:00,71.7,66.6,29.83,SW,236,2.0,3.0,84,0.00,,,0.00,Wunderground v.1.15,2013-06-07 15:02:00,
2013-06-07 10:07:00,71.9,66.5,29.83,WSW,248,2.0,3.0,83,0.00,,,0.00,Wunderground v.1.15,2013-06-07 15:07:00,
2013-06-07 10:12:00,72.4,66.9,29.83,WSW,237,2.0,3.0,83,0.00,,,0.00,Wunderground v.1.15,2013-06-07 15:12:00,
2013-06-07 10:17:00,73.2,68.1,29.83,SSW,212,2.0,3.0,84,0.00,,,0.00,Wunderground v.1.15,2013-06-07 15:17:00,
2013-06-07 10:22:00,73.5,67.3,29.83,NW,313,2.0,5.0,81,0.00,,,0.00,Wunderground v.1.15,2013-06-07 15:22:00,
2013-06-07 10:27:00,73.7,67.5,29.82,SW,236,1.0,5.0,81,0.00,,,0.00,Wunderground v.1.15,2013-06-07 15:27:00,
2013-06-07 10:32:00,73.6,67.4,29.82,SW,215,1.0,2.0,81,0.00,,,0.00,Wunderground v.1.15,2013-06-07 15:32:00,
2013-06-07 10:38:00,73.9,67.3,29.83,SW,232,1.0,3.0,80,0.00,,,0.00,Wunderground v.1.15,2013-06-07 15:38:00,
2013-06-07 10:43:00,74.4,68.5,29.82,SW,232,1.0,1.0,82,0.00,,,0.00,Wunderground v.1.15,2013-06-07 15:43:00,
2013-06-07 10:49:00,75.2,68.6,29.83,West,260,0.0,1.0,80,0.00,,,0.00,Wunderground v.1.15,2013-06-07 15:49:00,
2013-06-07 10:55:00,75.6,68.3,29.82,SW,232,1.0,2.0,78,0.00,,,0.00,Wunderground v.1.15,2013-06-07 15:55:00,
2013-06-07 11:00:00,75.6,69.0,29.83,WSW,246,1.0,1.0,80,0.00,,,0.00,Wunderground v.1.15,2013-06-07 16:00:00,
2013-06-07 11:06:00,76.1,70.6,29.83,WSW,243,1.0,2.0,83,0.00,,,0.00,Wunderground v.1.15,2013-06-07 16:06:00,
2013-06-07 11:12:00,76.2,67.7,29.83,SW,235,2.0,4.0,75,0.00,,,0.00,Wunderground v.1.15,2013-06-07 16:12:00,
2013-06-07 11:17:00,75.8,68.8,29.83,WSW,251,2.0,4.0,79,0.00,,,0.00,Wunderground v.1.15,2013-06-07 16:17:00,
2013-06-07 11:22:00,76.0,68.6,29.83,WSW,238,2.0,2.0,78,0.00,,,0.00,Wunderground v.1.15,2013-06-07 16:22:00,
2013-06-07 11:28:00,76.2,68.8,29.83,SW,216,2.0,4.0,78,0.00,,,0.00,Wunderground v.1.15,2013-06-07 16:28:00,
2013-06-07 11:35:00,76.2,68.8,29.82,WSW,254,2.0,3.0,78,0.00,,,0.00,Wunderground v.1.15,2013-06-07 16:35:00,
2013-06-07 11:41:00,76.0,68.3,29.82,WSW,248,3.0,5.0,77,0.00,,,0.00,Wunderground v.1.15,2013-06-07 16:41:00,
2013-06-07 11:46:00,76.0,68.3,29.82,West,266,3.0,3.0,77,0.00,,,0.00,Wunderground v.1.15,2013-06-07 16:46:00,
2013-06-07 11:51:00,76.3,68.6,29.82,WSW,242,3.0,4.0,77,0.00,,,0.00,Wunderground v.1.15,2013-06-07 16:51:00,
2013-06-07 11:57:00,76.4,68.3,29.82,WSW,252,3.0,4.0,76,0.00,,,0.00,Wunderground v.1.15,2013-06-07 16:57:00,
2013-06-07 12:03:00,76.5,68.4,29.82,WSW,247,3.0,4.0,76,0.00,,,0.00,Wunderground v.1.15,2013-06-07 17:03:00,
2013-06-07 12:09:00,77.0,68.5,29.82,SW,236,3.0,4.0,75,0.00,,,0.00,Wunderground v.1.15,2013-06-07 17:09:00,
2013-06-07 12:15:00,77.1,68.9,29.81,West,263,3.0,6.0,76,0.00,,,0.00,Wunderground v.1.15,2013-06-07 17:15:00,
2013-06-07 12:20:00,77.1,68.2,29.81,WSW,239,4.0,4.0,74,0.00,,,0.00,Wunderground v.1.15,2013-06-07 17:20:00,
2013-06-07 12:25:00,77.0,68.9,29.81,SW,234,3.0,4.0,76,0.00,,,0.00,Wunderground v.1.15,2013-06-07 17:25:00,
2013-06-07 12:30:00,76.9,68.0,29.81,WSW,247,2.0,4.0,74,0.00,,,0.00,Wunderground v.1.15,2013-06-07 17:30:00,
2013-06-07 12:36:00,76.3,68.2,29.81,WSW,244,3.0,4.0,76,0.00,,,0.00,Wunderground v.1.15,2013-06-07 17:36:00,
2013-06-07 12:41:00,75.7,68.0,29.81,WSW,242,4.0,4.0,77,0.00,,,0.00,Wunderground v.1.15,2013-06-07 17:41:00,
2013-06-07 12:46:00,75.5,67.8,29.81,WSW,246,4.0,5.0,77,0.00,,,0.00,Wunderground v.1.15,2013-06-07 17:46:00,
2013-06-07 12:52:00,75.4,68.1,29.80,SW,218,4.0,4.0,78,0.00,,,0.00,Wunderground v.1.15,2013-06-07 17:52:00,
2013-06-07 12:58:00,76.1,67.6,29.80,WSW,239,4.0,7.0,75,0.00,,,0.00,Wunderground v.1.15,2013-06-07 17:58:00,
2013-06-07 13:04:00,76.2,68.1,29.80,WSW,257,4.0,6.0,76,0.00,,,0.00,Wunderground v.1.15,2013-06-07 18:04:00,
2013-06-07 13:09:00,76.4,67.9,29.80,WSW,251,4.0,6.0,75,0.00,,,0.00,Wunderground v.1.15,2013-06-07 18:09:00,
2013-06-07 13:15:00,77.5,67.8,29.80,SW,225,4.0,4.0,72,0.00,,,0.00,Wunderground v.1.15,2013-06-07 18:15:00,
2013-06-07 13:21:00,77.6,67.9,29.80,South,184,4.0,6.0,72,0.00,,,0.00,Wunderground v.1.15,2013-06-07 18:21:00,
2013-06-07 13:29:00,77.9,67.7,29.80,SW,226,4.0,6.0,71,0.00,,,0.00,Wunderground v.1.15,2013-06-07 18:29:00,
2013-06-07 13:34:00,78.1,67.1,29.80,SW,232,5.0,7.0,69,0.00,,,0.00,Wunderground v.1.15,2013-06-07 18:34:00,
2013-06-07 13:39:00,77.5,66.9,29.80,WSW,245,5.0,7.0,70,0.00,,,0.00,Wunderground v.1.15,2013-06-07 18:39:00,
2013-06-07 13:44:00,77.5,66.5,29.79,WSW,240,4.0,5.0,69,0.00,,,0.00,Wunderground v.1.15,2013-06-07 18:44:00,
2013-06-07 13:50:00,77.3,67.6,29.79,WSW,242,4.0,4.0,72,0.00,,,0.00,Wunderground v.1.15,2013-06-07 18:50:00,
2013-06-07 13:55:00,77.1,66.6,29.79,WSW,253,5.0,6.0,70,0.00,,,0.00,Wunderground v.1.15,2013-06-07 18:55:00,
2013-06-07 14:00:00,77.9,67.3,29.79,SW,230,5.0,5.0,70,0.00,,,0.00,Wunderground v.1.15,2013-06-07 19:00:00,
2013-06-07 14:06:00,78.8,67.3,29.79,WSW,252,4.0,6.0,68,0.00,,,0.00,Wunderground v.1.15,2013-06-07 19:06:00,
2013-06-07 14:12:00,78.8,66.5,29.79,WSW,250,6.0,6.0,66,0.00,,,0.00,Wunderground v.1.15,2013-06-07 19:12:00,
2013-06-07 14:17:00,78.7,65.9,29.79,SW,216,6.0,6.0,65,0.00,,,0.00,Wunderground v.1.15,2013-06-07 19:17:00,
2013-06-07 14:22:00,78.8,66.9,29.79,WSW,238,6.0,6.0,67,0.00,,,0.00,Wunderground v.1.15,2013-06-07 19:22:00,
2013-06-07 14:28:00,79.7,68.2,29.79,North,10,4.0,6.0,68,0.00,,,0.00,Wunderground v.1.15,2013-06-07 19:28:00,
2013-06-07 14:33:00,79.9,67.1,29.79,SW,234,3.0,7.0,65,0.00,,,0.00,Wunderground v.1.15,2013-06-07 19:33:00,
2013-06-07 14:39:00,79.7,65.5,29.79,WNW,297,5.0,7.0,62,0.00,,,0.00,Wunderground v.1.15,2013-06-07 19:39:00,
2013-06-07 14:44:00,79.6,66.3,29.78,West,268,5.0,7.0,64,0.00,,,0.00,Wunderground v.1.15,2013-06-07 19:44:00,
2013-06-07 14:49:00,79.8,65.2,29.79,WSW,242,5.0,8.0,61,0.00,,,0.00,Wunderground v.1.15,2013-06-07 19:49:00,
2013-06-07 14:54:00,80.1,65.9,29.79,West,259,6.0,10.0,62,0.00,,,0.00,Wunderground v.1.15,2013-06-07 19:54:00,
2013-06-07 14:59:00,80.0,64.9,29.78,SW,236,6.0,10.0,60,0.00,,,0.00,Wunderground v.1.15,2013-06-07 19:59:00,
2013-06-07 15:04:00,79.5,65.3,29.79,WSW,240,6.0,8.0,62,0.00,,,0.00,Wunderground v.1.15,2013-06-07 20:04:00,
2013-06-07 15:10:00,79.3,65.1,29.78,SSW,205,6.0,6.0,62,0.00,,,0.00,Wunderground v.1.15,2013-06-07 20:10:00,
2013-06-07 15:15:00,79.3,66.1,29.79,West,271,6.0,9.0,64,0.00,,,0.00,Wunderground v.1.15,2013-06-07 20:15:00,
2013-06-07 15:20:00,79.6,67.2,29.78,SW,227,7.0,8.0,66,0.00,,,0.00,Wunderground v.1.15,2013-06-07 20:20:00,
2013-06-07 15:26:00,80.1,66.8,29.79,West,281,5.0,8.0,64,0.00,,,0.00,Wunderground v.1.15,2013-06-07 20:26:00,
2013-06-07 15:31:00,79.9,66.6,29.78,SW,220,4.0,4.0,64,0.00,,,0.00,Wunderground v.1.15,2013-06-07 20:31:00,
2013-06-07 15:37:00,79.6,65.0,29.79,East,99,4.0,5.0,61,0.00,,,0.00,Wunderground v.1.15,2013-06-07 20:37:00,
2013-06-07 15:42:00,78.9,64.3,29.79,SW,234,4.0,6.0,61,0.00,,,0.00,Wunderground v.1.15,2013-06-07 20:42:00,
2013-06-07 15:47:00,78.3,65.1,29.79,ENE,67,3.0,6.0,64,0.00,,,0.00,Wunderground v.1.15,2013-06-07 20:47:00,
2013-06-07 15:53:00,78.0,65.7,29.79,SW,227,3.0,5.0,66,0.00,,,0.00,Wunderground v.1.15,2013-06-07 20:53:00,
2013-06-07 15:58:00,78.3,66.0,29.79,WSW,253,4.0,5.0,66,0.00,,,0.00,Wunderground v.1.15,2013-06-07 20:58:00,
2013-06-07 16:03:00,79.1,66.3,29.79,West,280,3.0,5.0,65,0.00,,,0.00,Wunderground v.1.15,2013-06-07 21:03:00,
2013-06-07 16:08:00,79.0,65.8,29.79,SW,236,4.0,7.0,64,0.00,,,0.00,Wunderground v.1.15,2013-06-07 21:08:00,
2013-06-07 16:14:00,78.6,65.8,29.79,SE,134,5.0,5.0,65,0.00,,,0.00,Wunderground v.1.15,2013-06-07 21:14:00,
2013-06-07 16:19:00,78.5,66.2,29.79,WSW,252,3.0,5.0,66,0.00,,,0.00,Wunderground v.1.15,2013-06-07 21:19:00,
2013-06-07 16:24:00,78.4,66.1,29.79,SW,227,2.0,5.0,66,0.00,,,0.00,Wunderground v.1.15,2013-06-07 21:24:00,
2013-06-07 16:29:00,78.2,65.5,29.79,East,97,2.0,5.0,65,0.00,,,0.00,Wunderground v.1.15,2013-06-07 21:29:00,
2013-06-07 16:34:00,77.9,64.7,29.79,SSW,198,3.0,8.0,64,0.00,,,0.00,Wunderground v.1.15,2013-06-07 21:34:00,
2013-06-07 16:40:00,77.3,65.9,29.80,SW,232,4.0,5.0,68,0.00,,,0.00,Wunderground v.1.15,2013-06-07 21:40:00,
2013-06-07 17:04:00,76.9,65.5,29.80,East,92,1.0,1.0,68,0.00,,,0.00,Wunderground v.1.15,2013-06-07 22:04:00,
2013-06-07 17:10:00,77.0,65.2,29.80,NNW,337,0.0,1.0,67,0.00,,,0.00,Wunderground v.1.15,2013-06-07 22:10:00,
2013-06-07 17:16:00,77.1,65.7,29.81,North,360,0.0,1.0,68,0.00,,,0.00,Wunderground v.1.15,2013-06-07 22:16:00,
2013-06-07 17:22:00,77.1,65.3,29.81,SW,219,0.0,2.0,67,0.00,,,0.00,Wunderground v.1.15,2013-06-07 22:22:00,
2013-06-07 17:27:00,77.0,65.6,29.81,SW,232,0.0,1.0,68,0.00,,,0.00,Wunderground v.1.15,2013-06-07 22:27:00,
2013-06-07 17:33:00,76.9,65.5,29.81,ENE,63,1.0,2.0,68,0.00,,,0.00,Wunderground v.1.15,2013-06-07 22:33:00,
2013-06-07 17:38:00,76.9,64.7,29.81,NNE,15,0.0,2.0,66,0.00,,,0.00,Wunderground v.1.15,2013-06-07 22:38:00,
2013-06-07 17:43:00,76.9,65.5,29.80,East,84,0.0,2.0,68,0.00,,,0.00,Wunderground v.1.15,2013-06-07 22:43:00,
2013-06-07 17:49:00,76.7,64.9,29.81,NNW,337,0.0,0.0,67,0.00,,,0.00,Wunderground v.1.15,2013-06-07 22:49:00,
2013-06-07 17:54:00,76.5,64.7,29.80,East,83,0.0,0.0,67,0.00,,,0.00,Wunderground v.1.15,2013-06-07 22:54:00,
2013-06-07 18:00:00,76.2,65.3,29.81,SSW,196,0.0,1.0,69,0.00,,,0.00,Wunderground v.1.15,2013-06-07 23:00:00,
2013-06-07 18:05:00,75.8,64.9,29.81,SE,146,0.0,1.0,69,0.00,,,0.00,Wunderground v.1.15,2013-06-07 23:05:00,
2013-06-07 18:11:00,75.7,65.2,29.81,NNE,24,0.0,0.0,70,0.00,,,0.00,Wunderground v.1.15,2013-06-07 23:11:00,